Погода в Синине

Китай     30°25′41″N   105°29′22″E
темп.,
°C
ветер,
м/с
пор.,
м/с
влажн.,
%
обл.,
%
осадки,
мм/ч
давл.,
гПа
погр.,
м
1 марта, пн
пн123:00+9ссв2873100 0.2 1020481
02:00+9ссв31167100 0.6 1020677
05:00+9с6164298 0.0 1023686
08:00+9ссв7163595 0.0 1026707
11:00+14ссв9122783 0.0 10281529
14:00+17с8123061 0.0 10251833
17:00+18с58305 0.0 10252123
20:00+13всв224027 0.0 102627
2 марта, вт
вт223:00+11вюв225738 0.0 102824
02:00+9в126748 0.0 102622
05:00+9вюв336776 0.0 102459
08:00+8в227785 0.0 102566
11:00+13в335579 0.0 1024654
14:00+16в434585 0.0 10211432
17:00+14в555512 0.0 1020941
20:00+10в357614 0.0 1021275
3 марта, ср
ср323:00+9св25859 0.0 1024184
02:00+9ссв118752 0.0 102435
05:00+9зсз228952 0.0 102269
08:00+10з228472 0.0 1023120
11:00+12сз117298 0.0 1023521
14:00+16св215483 0.1 10191169
17:00+17вюв224864 0.0 10161453
20:00+15в235470 0.0 101881
4 марта, чт
чт423:00+13вюв226192 0.0 102025
02:00+12вюв126787 0.0 101922
05:00+11вюв227297 0.0 101622
08:00+11в127465 0.0 101627
11:00+16в33500 0.0 1016900
14:00+19всв334036 0.0 10131644
17:00+20всв333865 0.0 10111871
20:00+16всв225339 0.0 101233
5 марта, пт
пт523:00+16с245799 0.0 1014144
02:00+14ссз376198 0.0 1014228
05:00+14зсз246094 0.0 1014158
08:00+12ссз386648 0.0 1015226
11:00+19с563321 0.0 1017965
14:00+19всв664753 0.0 1014820
17:00+17вюв2358100 0.0 1014156
20:00+16св1159100 0.0 101537